Voltar ao catálogo

IRIDIUM 33 DEB

AtivoPO
NORAD 35631·DEBRIS·🇺🇸 United States

Lançado Sep 14, 1997 de Baikonur Cosmodrome

Loading…

Próximas Passagens (próximas 24 horas)

TLE

AtualizadoSource: Space-Track

Época: Sep 14, 2026, 11:33 UTC

1 35631U 97051RD  26257.48135058  .00000568  00000-0  14789-3 0  9997
2 35631  86.3601 262.1688 0014396 283.7828 228.2510 14.47897538911869

Acompanhe IRIDIUM 33 DEB em tempo real com AllMySat

Download on the App Store